FW7545 Weather Reports


time (UTC)temp
C
wind
direction
speed
KPH
gust
KPH
rain 1hr
cm
rain 24hr
cm
rain mn
cm
humidity
%
barometer
mb
20260505211004 27 241 16.1 29.0 0.00 0.03 0.03 31 1006.8
20260505210004 27 246 24.1 38.6 0.00 0.03 0.03 30 1006.7
20260505205504 27 250 20.9 41.8 0.00 0.03 0.03 30 1006.7
20260505205004 27 237 22.5 37.0 0.00 0.03 0.03 29 1006.9
20260505204004 27 238 25.7 37.0 0.00 0.03 0.03 30 1006.9
20260505203504 27 242 14.5 41.8 0.00 0.03 0.03 30 1007.0
20260505203004 27 243 24.1 40.2 0.00 0.03 0.03 30 1007.1
20260505202004 27 230 22.5 51.5 0.00 0.03 0.03 31 1007.1
20260505201504 27 243 19.3 32.2 0.00 0.03 0.03 32 1007.0
20260505200504 27 247 16.1 32.2 0.00 0.03 0.03 32 1007.1
20260505200004 27 256 19.3 32.2 0.00 0.03 0.03 31 1007.1
20260505195504 27 248 22.5 37.0 0.00 0.03 0.03 32 1007.2
20260505194504 27 234 19.3 32.2 0.00 0.03 0.03 32 1007.2
20260505194004 28 227 14.5 32.2 0.00 0.03 0.03 33 1007.3
20260505193504 27 257 16.1 29.0 0.00 0.03 0.03 32 1007.3
20260505193004 27 265 16.1 35.4 0.00 0.03 0.03 32 1007.4
20260505192504 27 274 19.3 41.8 0.00 0.03 0.03 32 1007.4
20260505191004 28 259 19.3 35.4 0.00 0.03 0.03 31 1007.6
20260505190004 28 231 19.3 32.2 0.00 0.03 0.03 32 1007.6
20260505185004 28 247 16.1 37.0 0.00 0.03 0.03 33 1007.6
20260505184504 27 243 14.5 29.0 0.00 0.03 0.03 34 1008.0
20260505183504 27 233 16.1 37.0 0.00 0.03 0.03 34 1008.1
20260505183005 27 253 20.9 35.4 0.00 0.03 0.03 35 1008.0
20260505182004 27 251 19.3 35.4 0.00 0.03 0.03 35 1008.2
20260505181504 27 235 19.3 29.0 0.00 0.03 0.03 35 1008.3
20260505175504 27 275 11.3 25.7 0.00 0.03 0.03 37 1008.4
20260505174504 27 262 17.7 40.2 0.00 0.03 0.03 36 1008.4
20260505174005 27 255 14.5 27.4 0.00 0.03 0.03 37 1008.5
20260505173504 27 250 14.5 25.7 0.00 0.03 0.03 38 1008.5
20260505172504 27 226 11.3 29.0 0.00 0.03 0.03 39 1009.0
20260505172004 26 240 8.0 20.9 0.00 0.03 0.03 41 1009.0
20260505171503 26 255 14.5 22.5 0.00 0.03 0.03 41 1009.0
20260505171004 26 274 16.1 32.2 0.00 0.03 0.03 41 1009.0
20260505170504 26 253 12.9 24.1 0.00 0.03 0.03 41 1009.1
20260505170004 26 236 9.7 29.0 0.00 0.03 0.03 41 1009.0
20260505165004 26 253 8.0 19.3 0.00 0.03 0.03 41 1009.1
20260505164504 26 278 8.0 19.3 0.00 0.03 0.03 43 1009.3
20260505164004 26 270 8.0 25.7 0.00 0.03 0.03 42 1009.3
20260505163504 26 269 14.5 27.4 0.00 0.03 0.03 43 1009.4
20260505163005 25 218 9.7 19.3 0.00 0.03 0.03 43 1009.5
20260505162504 25 243 9.7 19.3 0.00 0.03 0.03 45 1009.5
20260505161504 25 234 11.3 24.1 0.00 0.03 0.03 44 1009.6
20260505161004 25 234 9.7 22.5 0.00 0.03 0.03 44 1009.7
20260505160504 25 233 12.9 22.5 0.00 0.03 0.03 44 1009.7
20260505153005 23 216 11.3 20.9 0.00 0.03 0.03 48 1010.2
20260505152504 23 266 9.7 22.5 0.00 0.03 0.03 49 1010.2
20260505152004 23 256 8.0 19.3 0.00 0.03 0.03 50 1010.2
20260505151004 23 267 8.0 19.3 0.00 0.03 0.03 52 1010.3
20260505150504 22 253 8.0 16.1 0.00 0.03 0.03 53 1010.3
20260505140504 20 271 11.3 20.9 0.00 0.03 0.03 60 1010.7
20260505125004 17 253 8.0 14.5 0.00 0.00 0.00 70 1010.5
20260505124504 16 257 8.0 16.1 0.00 0.00 0.00 70 1010.3
20260505124005 16 247 6.4 16.1 0.00 0.00 0.00 72 1010.3
20260505123004 16 276 4.8 19.3 0.00 0.00 0.00 74 1010.3
20260505122504 15 241 8.0 14.5 0.00 0.00 0.00 75 1010.4
20260505122004 15 226 6.4 16.1 0.00 0.00 0.00 76 1010.4
20260505121504 15 239 6.4 12.9 0.00 0.00 0.00 78 1010.4
20260505121004 15 234 3.2 9.7 0.00 0.00 0.00 78 1010.4
20260505120503 15 263 4.8 14.5 0.00 0.00 0.00 79 1010.5
20260505120005 14 252 4.8 11.3 0.00 0.00 0.00 79 1010.5
20260505115004 13 235 8.0 19.3 0.00 0.00 0.00 80 1010.6
20260505114504 13 227 8.0 12.9 0.00 0.00 0.00 81 1010.5
20260505114004 13 228 8.0 14.5 0.00 0.00 0.00 81 1010.5
20260505113504 13 246 4.8 11.3 0.00 0.00 0.00 81 1010.5
20260505113004 13 246 3.2 4.8 0.00 0.00 0.00 81 1010.5
20260505112004 13 296 3.2 4.8 0.00 0.00 0.00 80 1010.5
20260505111503 13 234 3.2 9.7 0.00 0.00 0.00 80 1010.4
20260505111004 13 292 3.2 4.8 0.00 0.00 0.00 80 1010.3
20260505110504 13 235 3.2 9.7 0.00 0.00 0.00 80 1010.3
20260505102004 13 273 8.0 16.1 0.00 0.00 0.00 73 1010.2
20260505101004 13 242 9.7 19.3 0.00 0.00 0.00 73 1010.1
20260505100005 13 231 9.7 16.1 0.00 0.00 0.00 73 1009.9
20260505095004 13 238 8.0 14.5 0.00 0.00 0.00 73 1009.9
20260505094504 13 234 9.7 12.9 0.00 0.00 0.00 73 1009.9
20260505094004 13 233 4.8 12.9 0.00 0.00 0.00 73 1009.9
20260505093504 13 248 4.8 8.0 0.00 0.00 0.00 73 1009.8
20260505093004 13 240 6.4 12.9 0.00 0.00 0.00 73 1009.8
20260505092504 13 255 3.2 11.3 0.00 0.00 0.00 73 1009.8
20260505092004 13 267 4.8 11.3 0.00 0.00 0.00 73 1009.6
20260505091504 13 252 4.8 12.9 0.00 0.00 0.00 73 1009.6
20260505091004 13 241 6.4 19.3 0.00 0.00 0.00 73 1009.5
20260505090504 13 232 4.8 11.3 0.00 0.00 0.00 73 1009.5
20260505090004 13 242 4.8 12.9 0.00 0.00 0.00 73 1009.5
20260505085504 13 236 8.0 16.1 0.00 0.00 0.00 73 1009.4
20260505085004 13 233 4.8 12.9 0.00 0.00 0.00 73 1009.3
20260505084504 13 235 6.4 12.9 0.00 0.00 0.00 73 1009.3
20260505084004 13 239 8.0 16.1 0.00 0.00 0.00 73 1009.3
20260505083504 13 231 8.0 12.9 0.00 0.00 0.00 73 1009.4
20260505083005 13 236 4.8 12.9 0.00 0.00 0.00 73 1009.4
20260505082504 13 244 3.2 12.9 0.00 0.00 0.00 74 1009.4
20260505082004 13 249 4.8 11.3 0.00 0.00 0.00 74 1009.4
20260505081004 13 243 6.4 12.9 0.00 0.00 0.00 74 1009.5
20260505080504 13 241 4.8 12.9 0.00 0.00 0.00 75 1009.6
20260505080004 13 234 4.8 8.0 0.00 0.00 0.00 75 1009.6
20260505075504 13 246 0.0 1.6 0.00 0.00 0.00 75 1009.6
20260505075004 13 244 1.6 8.0 0.00 0.00 0.00 75 1009.4
20260505074504 12 250 3.2 11.3 0.00 0.00 0.00 75 1009.4
20260505073504 12 245 3.2 4.8 0.00 0.00 0.00 75 1009.3
20260505072504 12 234 1.6 4.8 0.00 0.00 0.00 75 1009.3
20260505071504 12 234 3.2 4.8 0.00 0.00 0.00 74 1009.3
20260505071004 12 239 1.6 4.8 0.00 0.00 0.00 74 1009.4
20260505070504 12 239 1.6 4.8 0.00 0.00 0.00 74 1009.5
20260505070005 12 241 1.6 4.8 0.00 0.00 0.00 74 1009.4
20260505065504 12 241 1.6 8.0 0.00 0.00 0.00 74 1009.5
20260505063504 12 234 4.8 8.0 0.00 0.00 0.00 73 1009.6
20260505063004 12 244 3.2 8.0 0.00 0.00 0.00 73 1009.7
20260505062504 12 242 3.2 4.8 0.00 0.00 0.00 73 1009.7
20260505062004 12 238 3.2 8.0 0.00 0.00 0.00 73 1009.8
20260505061504 12 240 4.8 4.8 0.00 0.00 0.00 73 1009.8
20260505061004 12 240 3.2 4.8 0.00 0.00 0.00 73 1009.8
20260505060504 12 243 3.2 4.8 0.00 0.00 0.00 72 1009.8
20260505060005 12 246 3.2 4.8 0.00 0.00 0.00 72 1009.8
20260505055504 12 250 1.6 4.8 0.00 0.00 0.00 72 1009.8
20260505054503 12 252 1.6 3.2 0.00 0.00 0.00 71 1009.9
20260505054004 12 252 0.0 3.2 0.00 0.00 0.00 71 1009.9
20260505053004 12 252 0.0 0.0 0.00 0.00 0.00 71 1009.9
20260505052504 12 252 0.0 0.0 0.00 0.00 0.00 71 1009.9
20260505052004 12 252 0.0 1.6 0.00 0.00 0.00 71 1009.9
20260505051504 12 252 0.0 1.6 0.00 0.00 0.00 71 1009.9
20260505051004 12 252 1.6 4.8 0.00 0.00 0.00 71 1009.9
20260505050504 12 238 1.6 4.8 0.00 0.00 0.00 71 1009.9
20260505041504 12 227 0.0 1.6 0.00 0.00 0.00 67 1010.2
20260505041003 12 227 0.0 0.0 0.00 0.00 0.00 67 1010.1
20260505040505 12 227 0.0 0.0 0.00 0.00 0.00 66 1010.1
20260505035504 13 227 0.0 0.0 0.00 0.00 0.00 64 1010.1
20260505034504 13 240 0.0 1.6 0.00 0.00 0.00 64 1010.0
20260505034003 13 240 0.0 0.0 0.00 0.00 0.00 63 1010.1
20260505033503 13 240 0.0 0.0 0.00 0.00 0.00 62 1010.1
20260505033004 13 240 0.0 0.0 0.00 0.00 0.00 62 1010.1
20260505032504 13 240 0.0 1.6 0.00 0.00 0.00 61 1010.2
20260505032004 13 240 0.0 0.0 0.00 0.00 0.00 61 1010.2
20260505031504 13 240 0.0 0.0 0.00 0.00 0.00 61 1010.2
20260505031004 14 240 0.0 0.0 0.00 0.00 0.00 61 1010.2
20260505030504 14 240 0.0 0.0 0.00 0.00 0.00 60 1010.2
20260505030004 14 240 0.0 0.0 0.00 0.00 0.00 59 1010.3
20260505025504 14 240 0.0 0.0 0.00 0.00 0.00 59 1010.3
20260505025004 15 240 0.0 0.0 0.00 0.00 0.00 59 1010.3
20260505024504 15 240 0.0 0.0 0.00 0.00 0.00 58 1010.3
20260505024004 15 240 0.0 0.0 0.00 0.00 0.00 56 1010.4
20260505023504 15 240 0.0 0.0 0.00 0.00 0.00 55 1010.3
20260505023004 15 240 0.0 3.2 0.00 0.00 0.00 55 1010.4
20260505022504 15 239 0.0 0.0 0.00 0.00 0.00 54 1010.4
20260505022004 15 239 0.0 0.0 0.00 0.00 0.00 54 1010.3
20260505021504 16 239 0.0 0.0 0.00 0.00 0.00 53 1010.3
20260505021005 16 239 0.0 0.0 0.00 0.00 0.00 53 1010.3
20260505015004 17 239 0.0 0.0 0.00 0.00 0.00 51 1010.1
20260505014505 17 239 0.0 0.0 0.00 0.00 0.00 50 1010.1
20260505014004 17 239 0.0 0.0 0.00 0.00 0.00 48 1010.1
20260505013504 17 239 0.0 0.0 0.00 0.00 0.00 48 1010.0
20260505013004 17 239 0.0 1.6 0.00 0.00 0.00 47 1010.0
20260505012504 17 239 0.0 3.2 0.00 0.00 0.00 47 1010.0
20260505012004 18 238 1.6 3.2 0.00 0.00 0.00 46 1009.9
20260505011504 18 238 1.6 3.2 0.00 0.00 0.00 45 1009.8
20260505011004 18 236 1.6 3.2 0.00 0.00 0.00 45 1009.8
20260505010504 18 261 1.6 4.8 0.00 0.00 0.00 44 1009.7
20260505010005 18 286 3.2 4.8 0.00 0.00 0.00 43 1009.7
20260505005504 18 244 3.2 9.7 0.00 0.00 0.00 43 1009.6
20260505004504 19 280 1.6 4.8 0.00 0.00 0.00 42 1009.5
20260505004005 19 252 3.2 11.3 0.00 0.00 0.00 42 1009.4
20260505003505 19 233 8.0 14.5 0.00 0.00 0.00 41 1009.4
20260505003004 19 244 8.0 16.1 0.00 0.00 0.00 41 1009.4
20260505002504 19 259 8.0 16.1 0.00 0.00 0.00 41 1009.4
20260505002004 19 226 8.0 16.1 0.00 0.00 0.00 40 1009.3
20260505001504 20 235 9.7 19.3 0.00 0.00 0.00 40 1009.2
20260505000504 20 243 8.0 19.3 0.00 0.00 0.00 40 1009.1
20260505000004 20 243 4.8 19.3 0.00 0.00 0.00 39 1009.0
20260504235504 20 256 4.8 19.3 0.00 0.00 0.00 39 1008.8
20260504235004 20 251 9.7 19.3 0.00 0.00 0.00 39 1008.8
20260504234004 20 276 9.7 20.9 0.00 0.00 0.00 39 1008.7
20260504233504 20 244 9.7 22.5 0.00 0.00 0.00 38 1008.6
20260504233004 20 236 8.0 19.3 0.00 0.00 0.00 38 1008.5
20260504232504 21 255 4.8 19.3 0.00 0.00 0.00 38 1008.4
20260504232004 21 221 8.0 16.1 0.00 0.00 0.00 38 1008.4
20260504231505 21 246 9.7 20.9 0.00 0.00 0.00 37 1008.4
20260504231004 21 248 9.7 19.3 0.00 0.00 0.00 37 1008.3
20260504230504 21 260 8.0 16.1 0.00 0.00 0.00 37 1008.3
20260504230004 21 233 8.0 19.3 0.00 0.00 0.00 37 1008.3
20260504225504 21 240 8.0 19.3 0.00 0.00 0.00 36 1008.3
20260504225004 21 245 6.4 24.1 0.00 0.00 0.00 36 1008.4
20260504224504 21 240 11.3 20.9 0.00 0.00 0.00 36 1008.4
20260504224004 21 238 8.0 19.3 0.00 0.00 0.00 36 1008.3
20260504223504 21 225 16.1 24.1 0.00 0.00 0.00 35 1008.3
20260504223004 21 242 8.0 24.1 0.00 0.00 0.00 35 1008.4
20260504222504 21 238 6.4 25.7 0.00 0.00 0.00 36 1008.4
20260504222004 21 260 9.7 24.1 0.00 0.00 0.00 36 1008.4
20260504221504 21 259 8.0 22.5 0.00 0.00 0.00 36 1008.4
20260504221003 21 233 11.3 20.9 0.00 0.00 0.00 35 1008.5
20260504220504 21 237 12.9 20.9 0.00 0.00 0.00 35 1008.5
20260504220004 21 260 16.1 25.7 0.00 0.00 0.00 35 1008.4
20260504215004 21 245 9.7 22.5 0.00 0.00 0.00 35 1008.6
20260504214004 21 249 14.5 24.1 0.00 0.00 0.00 35 1008.7
20260504213004 21 243 14.5 32.2 0.00 0.00 0.00 35 1008.7
20260504212504 22 210 11.3 24.1 0.00 0.00 0.00 34 1008.8
20260504212004 22 280 9.7 19.3 0.00 0.00 0.00 35 1008.8
20260504211503 22 264 12.9 24.1 0.00 0.00 0.00 34 1008.8